(90850) = 1996 FM1 = 1998 XZ53

Discovered at Haleakala on 1996-03-16 by AMOS.

Orbit

Orbit type: Main Belt

Note: WebGL enabled browser required.

epoch2024-03-31.0
epoch JD2460400.5
perihelion date2022-03-12.18348
perihelion JD2459650.68348
argument of perihelion (°)149.12475
ascending node (°)286.18164
inclination (°)4.36353
eccentricity0.1160206
perihelion distance (AU)1.9753203
Tisserand w.r.t. Jupiter3.6
ΔV w.r.t. Earth (km/sec)8.8
semimajor axis (AU)2.2345773
mean anomaly (°)221.24108
mean daily motion (°/day)0.29506030
aphelion distance (AU)2.494
period (years)3.34
P-vector [x]0.25222153
P-vector [y]0.87156553
P-vector [z]0.42042577
Q-vector [x]-0.96490676
Q-vector [y]0.25933123
Q-vector [z]0.04125843
absolute magnitude16.27
phase slope0.15
uncertainty0
referenceMPEC 2024-E179
observations used1064
oppositions17
arc length (days)9930
first opposition used1996
last opposition used2023
residual rms (arc-secs)0.70
perturbers coarse indicatorM-v
perturbers precise indicator003Ek
first observation date used1996-03-16.0
last observation date used2023-05-24.0
computer nameMPCLINUX
JD of orbit computation2456966.751680
perihelion JD uncertainty (days)8.8064E-05
argument of perihelion uncertainty (°)7.1511E-05
ascending node uncertainty (°)6.7269E-05
inclination uncertainty (°)3.4151E-06
eccentricity uncertainty 3.4305E-08
perihelion distance uncertainty (AU)7.8189E-08
Minimum Orbit Intersection Distances (in AU)
for orbit epoch: 2460400.5, reference: E2024-FB1
Mercury1.66781
Venus1.25563
Earth0.99241
Mars0.40005
Jupiter2.71492
Saturn7.05408
Uranus16.1913
Neptune27.7449

Observations

1084 total observations over interval: 1996 03 16.38057 – 2023 05 24.318510
These data are available for download (format description).

Date (UT) J2000 RA J2000 Dec Magn Location Ref
1996 03 16.38057 10 43 32.38 +00 39 26.9   608 – Haleakala-AMOS MPC 26845
1996 03 16.41745 10 43 30.29 +00 39 38.3 19.5 R 608 – Haleakala-AMOS MPC 26845
1996 03 17.41869 10 42 36.86 +00 45 04.7   608 – Haleakala-AMOS MPC 26846
1996 03 17.45171 10 42 35.04 +00 45 15.4   608 – Haleakala-AMOS MPC 26846
1996 03 18.16639 10 41 57.75 +00 49 04.4   801 – Oak Ridge Observatory MPC 26871
1996 03 18.19299 10 41 56.36 +00 49 14.6   801 – Oak Ridge Observatory MPC 26871
1996 03 29.49049 10 33 45.04 +01 46 01.3   608 – Haleakala-AMOS MPC 27011
1996 03 29.53785 10 33 43.32 +01 46 13.7   608 – Haleakala-AMOS MPC 27011
1996 04 09.42975 10 29 21.06 +02 27 39.5 20.0 R 608 – Haleakala-AMOS MPC 27011
1996 04 09.46848 10 29 20.40 +02 27 46.0   608 – Haleakala-AMOS MPC 27011
1998 12 14.46861 07 15 49.65 +23 55 24.7 18.8   704 – Lincoln Laboratory ETS, New Mexico MPS 3434
1998 12 14.49052 07 15 48.57 +23 55 21.6 18.8   704 – Lincoln Laboratory ETS, New Mexico MPS 3434
1998 12 14.51236 07 15 47.32 +23 55 21.8 18.0   704 – Lincoln Laboratory ETS, New Mexico MPS 3434
1998 12 14.53417 07 15 46.26 +23 55 17.5 18.0   704 – Lincoln Laboratory ETS, New Mexico MPS 3434
1998 12 17.41444 07 13 12.58 +23 51 43.9 18.9   704 – Lincoln Laboratory ETS, New Mexico MPS 3434
1998 12 17.43717 07 13 11.26 +23 51 39.6 19.0   704 – Lincoln Laboratory ETS, New Mexico MPS 3434
1998 12 17.45983 07 13 09.89 +23 51 39.7 18.5   704 – Lincoln Laboratory ETS, New Mexico MPS 3434
1998 12 17.48260 07 13 08.63 +23 51 39.8 19.0   704 – Lincoln Laboratory ETS, New Mexico MPS 3434
1999 01 20.21527 06 36 20.04 +22 51 58.2 17.9   704 – Lincoln Laboratory ETS, New Mexico MPS 3584
1999 01 20.23723 06 36 18.73 +22 51 56.0 17.4   704 – Lincoln Laboratory ETS, New Mexico MPS 3584
1999 01 20.25909 06 36 17.41 +22 51 51.7 17.1   704 – Lincoln Laboratory ETS, New Mexico MPS 3584
1999 01 20.28166 06 36 16.10 +22 51 47.4 17.9   704 – Lincoln Laboratory ETS, New Mexico MPS 3584
2001 08 22.41052 02 01 22.10 +18 55 55.4 19.9   704 – Lincoln Laboratory ETS, New Mexico MPS 33114
2001 08 22.42270 02 01 22.52 +18 55 59.7 19.6   704 – Lincoln Laboratory ETS, New Mexico MPS 33114
2001 08 22.43536 02 01 22.89 +18 56 04.2 20.0   704 – Lincoln Laboratory ETS, New Mexico MPS 33114
2001 09 10.45357 02 07 05.14 +20 24 49.7 19.3   644 – Palomar Mountain/NEAT MPS 35347
2001 09 10.47482 02 07 05.10 +20 24 54.3 19.2   644 – Palomar Mountain/NEAT MPS 35347
2001 09 10.50056 02 07 05.00 +20 24 58.4 19.6   644 – Palomar Mountain/NEAT MPS 35347
2001 09 19.25553 02 05 46.24 +20 44 24.0 19.0 R 699 – Lowell Observatory-LONEOS MPS 35347
2001 09 19.28049 02 05 45.69 +20 44 26.0   699 – Lowell Observatory-LONEOS MPS 35347
2001 09 19.30546 02 05 45.23 +20 44 29.3   699 – Lowell Observatory-LONEOS MPS 35347
2001 09 19.33045 02 05 44.68 +20 44 32.3   699 – Lowell Observatory-LONEOS MPS 35347
2001 09 20.32864 02 05 25.45 +20 45 43.4 18.8   704 – Lincoln Laboratory ETS, New Mexico MPS 35347
2001 09 20.34456 02 05 25.05 +20 45 43.8 19.6   704 – Lincoln Laboratory ETS, New Mexico MPS 35347
2001 09 20.37387 02 05 24.34 +20 45 43.6 19.7   704 – Lincoln Laboratory ETS, New Mexico MPS 35347
2001 09 20.39004 02 05 23.97 +20 45 47.0 18.8   704 – Lincoln Laboratory ETS, New Mexico MPS 35347
2001 09 22.33116 02 04 40.69 +20 47 23.2 18.8   704 – Lincoln Laboratory ETS, New Mexico MPS 35347
2001 09 22.37660 02 04 39.48 +20 47 25.6 19.0   704 – Lincoln Laboratory ETS, New Mexico MPS 35347
2001 09 22.39093 02 04 39.02 +20 47 26.1 19.7   704 – Lincoln Laboratory ETS, New Mexico MPS 35347
2001 09 23.32875 02 04 15.42 +20 47 54.3 19.3   704 – Lincoln Laboratory ETS, New Mexico MPS 35347
2001 09 23.37284 02 04 14.05 +20 47 54.3 19.5   704 – Lincoln Laboratory ETS, New Mexico MPS 35347
2001 09 23.38896 02 04 13.58 +20 47 54.7 19.5   704 – Lincoln Laboratory ETS, New Mexico MPS 35347
2001 10 14.25117 01 48 49.59 +20 03 41.9 18.8   704 – Lincoln Laboratory ETS, New Mexico MPS 37382
2001 10 14.26681 01 48 48.70 +20 03 38.5 18.9   704 – Lincoln Laboratory ETS, New Mexico MPS 37382
2001 10 14.28302 01 48 47.70 +20 03 33.8 19.1   704 – Lincoln Laboratory ETS, New Mexico MPS 37382
2001 10 14.29868 01 48 46.73 +20 03 29.9 19.4   704 – Lincoln Laboratory ETS, New Mexico MPS 37382
2001 10 14.31433 01 48 45.75 +20 03 25.5 18.8   704 – Lincoln Laboratory ETS, New Mexico MPS 37382
2001 10 15.23560 01 47 52.28 +19 59 03.2 18.9 V 333 – Desert Eagle Observatory MPS 37382
2001 10 15.23700 01 47 52.20 +19 59 02.7 19.2 V 333 – Desert Eagle Observatory MPS 37382
2001 10 15.25913 01 47 50.81 +19 58 55.0 20.1 V 333 – Desert Eagle Observatory MPS 37382
2001 10 15.27843 01 47 49.63 +19 58 51.6 19.3 V 333 – Desert Eagle Observatory MPS 37382
2001 10 15.27980 01 47 49.52 +19 58 50.5 19.1 V 333 – Desert Eagle Observatory MPS 37382
2001 10 18.24986 01 44 52.76 +19 43 38.5 18.6   704 – Lincoln Laboratory ETS, New Mexico MPS 38803
2001 10 18.26628 01 44 51.70 +19 43 32.9 18.4   704 – Lincoln Laboratory ETS, New Mexico MPS 38803
2001 10 18.28279 01 44 50.65 +19 43 27.5 18.6   704 – Lincoln Laboratory ETS, New Mexico MPS 38803
2001 10 18.29899 01 44 49.63 +19 43 22.2 18.5   704 – Lincoln Laboratory ETS, New Mexico MPS 38803
2001 10 18.31537 01 44 48.61 +19 43 17.6 18.4   704 – Lincoln Laboratory ETS, New Mexico MPS 38803
2001 10 20.45885 01 42 38.58 +19 31 12.1 18.2   644 – Palomar Mountain/NEAT MPS 38803
2001 10 20.48020 01 42 37.25 +19 31 04.4 18.2   644 – Palomar Mountain/NEAT MPS 38803
2001 10 20.50143 01 42 35.94 +19 30 56.7 18.3   644 – Palomar Mountain/NEAT MPS 38803
2001 10 21.25071 01 41 51.00 +19 26 33.2 18.4   704 – Lincoln Laboratory ETS, New Mexico MPS 38803
2001 10 21.26692 01 41 49.98 +19 26 26.9 18.5   704 – Lincoln Laboratory ETS, New Mexico MPS 38803
2001 10 21.28471 01 41 48.81 +19 26 20.8 18.4   704 – Lincoln Laboratory ETS, New Mexico MPS 38803
2001 10 21.30134 01 41 47.79 +19 26 14.8 18.8   704 – Lincoln Laboratory ETS, New Mexico MPS 38803
2001 10 21.31774 01 41 46.88 +19 26 09.3 19.4   704 – Lincoln Laboratory ETS, New Mexico MPS 38803
2001 10 22.28685 01 40 47.94 +19 20 17.3 18.2   704 – Lincoln Laboratory ETS, New Mexico MPS 38803
2001 10 22.30510 01 40 46.81 +19 20 10.6 18.9   704 – Lincoln Laboratory ETS, New Mexico MPS 38803
2001 10 22.32195 01 40 45.63 +19 20 04.3 18.7   704 – Lincoln Laboratory ETS, New Mexico MPS 38803
2001 10 22.33881 01 40 44.58 +19 19 57.5 18.5   704 – Lincoln Laboratory ETS, New Mexico MPS 38803
2001 10 23.23867 01 39 50.31 +19 14 23.8 18.5 V 333 – Desert Eagle Observatory MPS 38803
2001 10 23.26455 01 39 48.70 +19 14 14.1 18.6 V 333 – Desert Eagle Observatory MPS 38803
2001 10 23.28618 01 39 47.32 +19 14 06.0 18.6 V 333 – Desert Eagle Observatory MPS 38803
2001 10 28.23201 01 34 52.22 +18 41 30.9 18.1   704 – Lincoln Laboratory ETS, New Mexico MPS 38803
2001 10 28.26467 01 34 50.23 +18 41 17.9 18.6   704 – Lincoln Laboratory ETS, New Mexico MPS 38803
2001 10 28.29717 01 34 48.20 +18 41 05.3 18.2   704 – Lincoln Laboratory ETS, New Mexico MPS 38803
2001 11 10.30297 01 23 40.96 +17 08 19.4 18.8   704 – Lincoln Laboratory ETS, New Mexico MPS 40107
2001 11 10.31810 01 23 40.29 +17 08 12.7 18.9   704 – Lincoln Laboratory ETS, New Mexico MPS 40107
2001 11 10.33253 01 23 39.65 +17 08 06.5 18.8   704 – Lincoln Laboratory ETS, New Mexico MPS 40107
2001 11 10.34675 01 23 39.02 +17 08 00.4 18.8   704 – Lincoln Laboratory ETS, New Mexico MPS 40107
2001 11 10.36100 01 23 38.40 +17 07 54.2 19.2   704 – Lincoln Laboratory ETS, New Mexico MPS 40107
2001 11 11.17527 01 23 05.40 +17 02 10.9 18.0 R 699 – Lowell Observatory-LONEOS MPS 41569
2001 11 11.19891 01 23 04.35 +17 02 00.6   699 – Lowell Observatory-LONEOS MPS 41569
2001 11 11.22232 01 23 03.35 +17 01 50.6   699 – Lowell Observatory-LONEOS MPS 41569
2001 11 11.24575 01 23 02.29 +17 01 41.6   699 – Lowell Observatory-LONEOS MPS 41569
2001 11 15.43917 01 20 29.17 +16 33 01.7 19.6   608 – Haleakala-AMOS MPS 41569
2001 11 15.45004 01 20 28.79 +16 32 57.3 19.5   608 – Haleakala-AMOS MPS 41569
2001 11 15.46117 01 20 28.42 +16 32 52.5 21.1   608 – Haleakala-AMOS MPS 41569
2001 11 17.21589 01 19 35.20 +16 21 22.4 19.2   704 – Lincoln Laboratory ETS, New Mexico MPS 41569
